GAOFEN-1 03

Last updated on Mon Sep 07 2026 00:02:46 GMT+0000 (Coordinated Universal Time)

1 43260U 18031B 26249.60145358 .00000334 00000+0 55423-4 0 9995 2 43260 98.0444 311.7169 0003285 141.9715 218.1727 14.76475690454707
UTC large
Height (km)
Speed (km/s)
/
Latitude / Longitude
Inclination (degrees)
Orbital Period (minutes)
Azimuth
Elevation
Range (km)
Doppler Factor

Next 0 passes for location: London (51.5072 / 0.1276)

No passes found over London.
GAOFEN-1 03